Location: Valdosta
(30.8330°N, 83.2790°W)
Time: 04:35:46
(UTC-05:00)

Star 48 S/N 10029-3 - Visible Passes

Search period start: 28 November 2014 00:00
Search period end: 08 December 2014 00:00
Orbit: 198 x 257 km, 27.6° (Epoch: 27 November)

Date Brightness Start Highest point End Pass type
(mag) Time Alt. Az. Time Alt. Az. Time Alt. Az.
28 Nov 5.1 18:50:01 10° WSW 18:51:09 22° SSW 18:51:09 22° SSW visible
29 Nov 4.3 18:31:41 10° WSW 18:33:23 28° S 18:33:49 25° SSE visible
30 Nov 4.4 18:12:55 10° WSW 18:14:37 28° S 18:16:04 12° ESE visible
03 Dec 6.0 18:48:33 10° SW 18:49:09 11° SSW 18:49:30 11° S visible
